Torna al catalogo

STARLINK-35668

AttivoComunicazioniVLEO
NORAD 66401·PAYLOAD·🇺🇸 United States

Lanciato Nov 8, 2025 da Cape Canaveral Space Force Station

Loading…

Prossimi Passaggi (prossime 24 ore)

TLE

AggiornatoSource: CelesTrak SupGP

Epoca: Sep 14, 2026, 21:06 UTC

1 66401C 25257X   26257.87965278  .00051575  00000+0  15245-2 0  2570
2 66401  53.1584  54.1121 0000992  85.8492  60.5207 15.34349815    19

Traccia STARLINK-35668 in tempo reale con AllMySat

Download on the App Store